{"data":{"norad_id":66480,"epoch":"2026-09-20T08:05:26.103552Z","epoch_age_seconds":103345,"freshness":"FRESH","line1":"1 66480U 25262AA  26263.33710768  .00008867  00000+0  33130-3 0  9996","line2":"2 66480  42.9960 277.0298 0000943 114.3411 245.7539 15.27583863 48670","mean_motion":15.27583863,"eccentricity":9.43e-5,"inclination_deg":42.996,"raan_deg":277.0298,"arg_perigee_deg":114.3411,"mean_anomaly_deg":245.7539,"bstar":0.0003313,"rev_number":4867,"period_min":94.266510329063,"perigee_km":482.39052009425,"apogee_km":483.68453761039,"semimajor_km":6861.1745288523,"source":"CELESTRAK","updated_at":"2026-09-21T09:00:35.917380Z"}}